Simultaneous Nadir Overpasses (SNOs) Predictions

Prediction of SNOs between METOP-B and TERRA Satellite Orbit:

Table of predicted SNOs for the next 14.0 days since TLE Epoch: 11/18/2017
Index Date (METOP-B) Time (METOP-B) Lat,Lon (METOP-B) SZA (METOP-B ) Date (TERRA) Time (TERRA) Lat,Lon (TERRA) SZA (TERRA ) Distance(km) Time Diff (sec)
1 11/19/2017 23:09:21 81.31,-119.92 104.05 11/19/2017 23:09:49 81.31,-119.85 104.07 1.28 28
2 11/20/2017 00:00:01 -81.31, 47.57 75.93 11/19/2017 23:59:16 -81.31, 47.74 75.94 2.87 45
3 11/22/2017 18:43:43 81.31, -53.37 104.65 11/22/2017 18:44:02 81.31, -53.29 104.68 1.49 19
4 11/22/2017 19:34:23 -81.31, 114.15 75.32 11/22/2017 19:33:29 -81.31, 114.31 75.33 2.70 54
5 11/25/2017 14:18:06 81.31, 13.18 105.21 11/25/2017 14:18:16 81.31, 13.15 105.21 0.61 10
6 11/25/2017 15:08:46 -81.31,-179.27 74.76 11/25/2017 15:07:43 -81.31,-179.23 74.79 0.65 63
7 11/28/2017 09:02:01 -81.22, -92.63 74.91 11/28/2017 09:03:15 -81.06, -92.24 74.95 18.68 74
8 11/28/2017 09:52:30 81.31, 79.32 105.66 11/28/2017 09:52:30 81.31, 79.48 105.68 2.62 0
9 11/28/2017 10:43:10 -81.31,-113.08 74.30 11/28/2017 10:41:57 -81.31,-112.89 74.32 3.31 73
10 12/01/2017 04:36:12 -81.30, -21.80 73.94 12/01/2017 04:37:17 -81.30, -21.95 73.93 2.72 65




NCC Satellite Simultaneous Nadir Overpasses (SNOs) Prediction Service
